TimeCDT,TemperatureF,Dew PointF,Humidity,Sea Level PressureIn,VisibilityMPH,Wind Direction,Wind SpeedMPH,Gust SpeedMPH,PrecipitationIn,Events,Conditions,WindDirDegrees,DateUTC
12:53 AM,54.0,37.9,55,30.17,10.0,ESE,4.6,-,N/A,,Clear,120,2013-03-10 06:53:00
1:53 AM,55.9,39.9,55,30.14,10.0,ESE,10.4,-,N/A,,Clear,120,2013-03-10 07:53:00
3:53 AM,55.0,43.0,64,30.15,10.0,ESE,10.4,-,N/A,,Clear,120,2013-03-10 08:53:00
4:53 AM,54.0,43.0,66,30.14,10.0,ESE,11.5,19.6,N/A,,Clear,120,2013-03-10 09:53:00
5:53 AM,54.0,44.1,69,30.16,10.0,ESE,11.5,-,N/A,,Clear,110,2013-03-10 10:53:00
7:53 AM,53.1,45.0,74,30.17,10.0,ESE,11.5,-,N/A,,Clear,120,2013-03-10 12:53:00
8:53 AM,57.9,46.9,67,30.16,10.0,SE,13.8,-,N/A,,Clear,140,2013-03-10 13:53:00
9:53 AM,63.0,48.0,58,30.16,10.0,SE,16.1,23.0,N/A,,Clear,140,2013-03-10 14:53:00
10:53 AM,68.0,48.0,49,30.17,10.0,SSE,18.4,-,N/A,,Clear,150,2013-03-10 15:53:00
11:53 AM,70.0,48.9,47,30.16,10.0,SSE,11.5,-,N/A,,Clear,150,2013-03-10 16:53:00
12:53 PM,72.0,48.0,43,30.14,10.0,SE,15.0,20.7,N/A,,Clear,140,2013-03-10 17:53:00
1:53 PM,75.0,48.0,38,30.11,10.0,SE,17.3,25.3,N/A,,Clear,140,2013-03-10 18:53:00
2:53 PM,75.9,48.0,37,30.10,10.0,South,11.5,-,N/A,,Clear,170,2013-03-10 19:53:00
3:53 PM,75.9,46.9,36,30.09,10.0,South,12.7,19.6,N/A,,Clear,180,2013-03-10 20:53:00
4:53 PM,75.0,46.9,37,30.08,10.0,South,11.5,21.9,N/A,,Clear,170,2013-03-10 21:53:00
5:53 PM,72.0,46.9,41,30.08,10.0,SE,9.2,-,N/A,,Clear,140,2013-03-10 22:53:00
6:53 PM,68.0,46.0,45,30.08,10.0,SSE,10.4,-,N/A,,Clear,150,2013-03-10 23:53:00
7:53 PM,64.9,43.0,45,30.09,10.0,South,9.2,-,N/A,,Clear,170,2013-03-11 00:53:00
8:53 PM,60.1,45.0,57,30.09,10.0,South,9.2,-,N/A,,Clear,170,2013-03-11 01:53:00
9:53 PM,59.0,46.9,64,30.09,10.0,South,6.9,-,N/A,,Clear,180,2013-03-11 02:53:00
10:53 PM,55.9,46.9,72,30.09,10.0,SSE,5.8,-,N/A,,Clear,160,2013-03-11 03:53:00
11:53 PM,55.9,48.9,77,30.07,10.0,SSE,5.8,-,N/A,,Clear,160,2013-03-11 04:53:00
12:53 AM,55.0,48.9,80,30.05,10.0,SE,8.1,-,N/A,,Clear,140,2013-03-11 05:53:00